Weather History for Cahokia, IL

Change the Weather History Date:

Wednesday, November 6, 2013

  Actual Average Record
Temperature  
Mean Temperature 48 °F -  
Max Temperature 59 °F 51 °F 78 °F (1999)
Min Temperature 37 °F 33 °F 24 °F (1959)
Degree Days  
Heating Degree Days 17    
Moisture  
Dew Point 46 °F    
Average Humidity 86    
Maximum Humidity 94    
Minimum Humidity 73    
Precipitation  
Precipitation 0.37 in - - ()
Sea Level Pressure  
Sea Level Pressure 30.05 in    
Wind  
Wind Speed 10 mph (WSW)    
Max Wind Speed 18 mph    
Max Gust Speed 26 mph    
Visibility 9 miles    
Events Rain    
Averages and records for this station are not official NWS values.
T = Trace of Precipitation, MM = Missing Value Source: NWS Daily Summary

Daily Weather History Graph

Daily Weather History Graph

Search for Another Location

Airport:

Trip Planner

Search our weather history database for the weather conditions in past years. The results will help you decide how hot, cold, wet, or windy it might be!

Date:

Astronomy

Nov. 06, 2013 Rise Set
Actual Time 6:32 AM CST 4:55 PM CST
Civil Twilight 6:05 AM CST 5:22 PM CST
Nautical Twilight 5:33 AM CST 5:54 PM CST
Astronomical Twilight 5:02 AM CST 6:25 PM CST
Moon 9:47 AM CST (11/6) 8:00 PM CST (11/6)
Length of Visible Light 11h 17m
Length of Day
10h 22m
Waxing Crescent, 14% of the Moon is Illuminated
Nov 6
Waxing Crescent
Nov 9
First Quarter
Nov 17
Full
Nov 25
Last Quarter
Dec 2
New

Hourly Weather History & Observations

Time (CST) Temp. Windchill Dew Point Humidity Pressure Visibility Wind Dir Wind Speed Gust Speed Precip Events Conditions
12:53 AM 57.0 °F - 53.1 °F 87% 29.98 in 9.0 mi SSE 12.7 mph 19.6 mph 0.05 in Rain Light Rain
1:53 AM 57.9 °F - 53.1 °F 84% 29.98 in 10.0 mi South 5.8 mph - 0.00 in   Scattered Clouds
2:53 AM 57.9 °F - 53.1 °F 84% 29.96 in 10.0 mi South 11.5 mph 20.7 mph 0.00 in Rain Light Rain
3:53 AM 57.0 °F - 54.0 °F 89% 29.96 in 9.0 mi South 8.1 mph - 0.06 in Rain Light Rain
4:00 AM 57.2 °F - 53.6 °F 88% 29.95 in 10.0 mi South 5.8 mph - 0.00 in Rain Light Rain
4:26 AM 57.2 °F - 53.6 °F 88% 29.93 in 10.0 mi South 9.2 mph - 0.01 in Rain Light Rain
4:53 AM 57.0 °F - 54.0 °F 89% 29.94 in 6.0 mi South 9.2 mph 19.6 mph 0.06 in Rain Rain
5:36 AM 55.4 °F - 53.6 °F 94% 29.92 in 4.0 mi South 11.5 mph 20.7 mph 0.12 in Rain Rain
5:44 AM 55.4 °F - 53.6 °F 94% 29.92 in 6.0 mi South 10.4 mph 21.9 mph 0.13 in Rain Light Rain
5:53 AM 55.9 °F - 54.0 °F 93% 29.92 in 10.0 mi South 12.7 mph 20.7 mph 0.13 in Rain Light Rain
6:15 AM 55.4 °F - 53.6 °F 94% 29.93 in 6.0 mi South 8.1 mph 18.4 mph 0.03 in Rain Light Rain
6:22 AM 55.4 °F - 53.6 °F 94% 29.94 in 8.0 mi SSW 9.2 mph - 0.03 in Rain Light Rain
6:53 AM 55.9 °F - 54.0 °F 93% 29.97 in 8.0 mi SW 6.9 mph - 0.07 in Rain Light Rain
7:53 AM 55.9 °F - 54.0 °F 93% 29.96 in 10.0 mi South 6.9 mph - 0.00 in   Overcast
8:07 AM 57.2 °F - 53.6 °F 88% 29.95 in 10.0 mi South 5.8 mph - N/A   Overcast
8:53 AM 57.9 °F - 55.0 °F 90% 29.94 in 10.0 mi South 4.6 mph - 0.00 in Rain Light Rain
9:38 AM 59.0 °F - 55.4 °F 88% 29.97 in 10.0 mi WSW 8.1 mph - N/A   Mostly Cloudy
9:53 AM 59.0 °F - 55.9 °F 90% 29.96 in 10.0 mi SW 10.4 mph - N/A   Overcast
10:24 AM 50.0 °F - 46.4 °F 87% 30.02 in 4.0 mi WNW 15.0 mph 23.0 mph 0.00 in Rain Light Rain
10:53 AM 48.0 °F - 46.0 °F 93% 30.05 in 7.0 mi WNW 10.4 mph - 0.00 in Rain Light Rain
11:53 AM 46.9 °F - 44.1 °F 90% 30.06 in 8.0 mi WNW 12.7 mph 20.7 mph 0.00 in   Overcast
12:53 PM 45.0 °F 37.4 °F 41.0 °F 86% 30.09 in 10.0 mi WNW 18.4 mph 21.9 mph 0.00 in   Overcast
1:53 PM 44.1 °F 36.8 °F 39.9 °F 85% 30.11 in 10.0 mi NW 16.1 mph 23.0 mph N/A   Overcast
2:53 PM 43.0 °F 36.8 °F 39.0 °F 86% 30.13 in 10.0 mi WNW 11.5 mph 19.6 mph N/A   Overcast
3:13 PM 42.8 °F 34.5 °F 37.4 °F 81% 30.14 in 10.0 mi WNW 18.4 mph 26.5 mph N/A   Overcast
3:53 PM 44.1 °F 38.6 °F 37.9 °F 79% 30.14 in 10.0 mi NW 10.4 mph - N/A   Overcast
4:53 PM 44.1 °F 37.1 °F 37.0 °F 76% 30.18 in 10.0 mi NW 15.0 mph 25.3 mph N/A   Overcast
5:53 PM 44.1 °F 37.7 °F 36.0 °F 73% 30.21 in 10.0 mi NW 12.7 mph 20.7 mph N/A   Overcast
6:53 PM 44.1 °F 38.6 °F 36.0 °F 73% 30.23 in 10.0 mi NW 10.4 mph - N/A   Scattered Clouds
7:53 PM 42.1 °F 37.1 °F 35.1 °F 76% 30.24 in 10.0 mi WNW 8.1 mph - N/A   Clear
8:53 PM 41.0 °F 36.4 °F 34.0 °F 76% 30.24 in 10.0 mi WNW 6.9 mph - N/A   Clear
9:53 PM 41.0 °F 37.1 °F 34.0 °F 76% 30.27 in 10.0 mi WNW 5.8 mph - N/A   Clear
10:53 PM 37.9 °F 35.5 °F 33.1 °F 83% 30.28 in 10.0 mi West 3.5 mph - N/A   Clear
11:53 PM 37.0 °F 34.5 °F 33.1 °F 86% 30.29 in 10.0 mi WSW 3.5 mph - N/A   Clear